Time,TemperatureF,DewpointF,PressureIn,WindDirection,WindDirectionDegrees,WindSpeedMPH,WindSpeedGustMPH,Humidity,HourlyPrecipIn,Conditions,Clouds,dailyrainin,SoftwareType,DateUTC
2013-06-08 00:00:00,42.8,30.7,29.76,NNE,22,0.0,1.0,62,0.00,,---,0.00,VWS V14.01,2013-06-08 06:00:00,
2013-06-08 00:30:00,41.5,29.9,29.76,NW,315,0.0,2.0,63,0.00,,---,0.00,VWS V14.01,2013-06-08 06:30:00,
2013-06-08 01:00:00,40.0,28.4,29.76,ESE,112,0.0,1.0,63,0.00,,---,0.00,VWS V14.01,2013-06-08 07:00:00,
2013-06-08 01:30:00,38.9,29.6,29.76,NNW,338,0.0,2.0,69,0.00,,---,0.00,VWS V14.01,2013-06-08 07:30:00,
2013-06-08 02:00:00,38.2,30.3,29.76,NNW,338,0.0,1.0,73,0.00,,---,0.00,VWS V14.01,2013-06-08 08:00:00,
2013-06-08 02:30:00,38.6,30.0,29.76,SE,135,0.0,2.0,71,0.00,,---,0.00,VWS V14.01,2013-06-08 08:30:00,
2013-06-08 03:00:00,39.1,29.1,29.75,ESE,112,0.0,2.0,67,0.00,,---,0.00,VWS V14.01,2013-06-08 09:00:00,
2013-06-08 03:30:00,41.6,27.9,29.74,WNW,292,1.0,10.0,58,0.00,,---,0.00,VWS V14.01,2013-06-08 09:30:00,
2013-06-08 04:00:00,44.1,27.1,29.74,NW,315,8.0,16.0,51,0.00,,---,0.00,VWS V14.01,2013-06-08 10:00:00,
2013-06-08 04:30:00,43.7,26.8,29.76,NW,315,7.0,16.0,51,0.00,,---,0.00,VWS V14.01,2013-06-08 10:30:00,
2013-06-08 05:00:00,43.3,26.9,29.76,WNW,292,6.0,15.0,52,0.00,,---,0.00,VWS V14.01,2013-06-08 11:00:00,
2013-06-08 05:30:00,42.2,27.2,29.76,NW,315,6.0,11.0,55,0.00,,---,0.00,VWS V14.01,2013-06-08 11:30:00,
2013-06-08 06:00:00,42.0,27.0,29.76,NW,315,5.0,13.0,55,0.00,,---,0.00,VWS V14.01,2013-06-08 12:00:00,
2013-06-08 06:30:00,41.4,26.9,29.76,NW,315,6.0,14.0,56,0.00,,---,0.00,VWS V14.01,2013-06-08 12:30:00,
2013-06-08 07:00:00,41.7,27.2,29.76,NW,315,6.0,12.0,56,0.00,,---,0.00,VWS V14.01,2013-06-08 13:00:00,
2013-06-08 07:30:00,45.2,28.6,29.75,NW,315,7.0,15.0,52,0.00,,---,0.00,VWS V14.01,2013-06-08 13:30:00,
2013-06-08 08:00:00,51.3,29.0,29.74,WNW,292,7.0,14.0,42,0.00,,---,0.00,VWS V14.01,2013-06-08 14:00:00,
2013-06-08 08:30:00,53.6,29.3,29.72,WNW,292,8.0,16.0,39,0.00,,---,0.00,VWS V14.01,2013-06-08 14:30:00,
2013-06-08 09:00:00,56.9,29.5,29.71,WNW,292,8.0,19.0,35,0.00,,---,0.00,VWS V14.01,2013-06-08 15:00:00,
2013-06-08 09:30:00,61.3,30.4,29.70,WNW,292,7.0,14.0,31,0.00,,---,0.00,VWS V14.01,2013-06-08 15:30:00,
2013-06-08 10:00:00,66.3,31.4,29.68,WNW,292,6.0,13.0,27,0.00,,---,0.00,VWS V14.01,2013-06-08 16:00:00,
2013-06-08 10:30:00,70.3,32.8,29.67,West,270,5.0,12.0,25,0.00,,---,0.00,VWS V14.01,2013-06-08 16:30:00,
2013-06-08 11:00:00,72.6,33.8,29.66,WNW,292,6.0,13.0,24,0.00,,---,0.00,VWS V14.01,2013-06-08 17:00:00,
2013-06-08 11:30:00,74.3,33.0,29.64,WNW,292,7.0,18.0,22,0.00,,---,0.00,VWS V14.01,2013-06-08 17:30:00,
2013-06-08 12:00:00,75.3,31.5,29.63,WNW,292,8.0,18.0,20,0.00,,---,0.00,VWS V14.01,2013-06-08 18:00:00,
2013-06-08 12:30:00,77.0,28.9,29.62,WNW,292,7.0,18.0,17,0.00,,---,0.00,VWS V14.01,2013-06-08 18:30:00,
2013-06-08 13:00:00,78.4,25.3,29.62,WNW,292,8.0,24.0,14,0.00,,---,0.00,VWS V14.01,2013-06-08 19:00:00,
2013-06-08 13:30:00,78.8,23.9,29.61,WNW,292,7.0,25.0,13,0.00,,---,0.00,VWS V14.01,2013-06-08 19:30:00,
2013-06-08 14:00:00,78.6,21.8,29.60,West,270,9.0,24.0,12,0.00,,---,0.00,VWS V14.01,2013-06-08 20:00:00,
2013-06-08 14:30:00,78.8,22.0,29.60,WNW,292,8.0,19.0,12,0.00,,---,0.00,VWS V14.01,2013-06-08 20:30:00,
2013-06-08 15:00:00,80.0,24.8,29.59,WNW,292,6.0,20.0,13,0.00,,---,0.00,VWS V14.01,2013-06-08 21:00:00,
2013-06-08 15:30:00,79.4,22.4,29.58,WNW,292,9.0,18.0,12,0.00,,---,0.00,VWS V14.01,2013-06-08 21:30:00,
2013-06-08 16:00:00,80.4,23.2,29.58,WNW,292,8.0,21.0,12,0.00,,---,0.00,VWS V14.01,2013-06-08 22:00:00,
2013-06-08 16:30:00,79.0,22.1,29.58,WNW,292,9.0,21.0,12,0.00,,---,0.00,VWS V14.01,2013-06-08 22:30:00,
2013-06-08 17:00:00,79.2,22.3,29.57,West,270,7.0,18.0,12,0.00,,---,0.00,VWS V14.01,2013-06-08 23:00:00,
2013-06-08 17:30:00,77.9,19.2,29.58,WNW,292,9.0,20.0,11,0.00,,---,0.00,VWS V14.01,2013-06-08 23:30:00,
2013-06-08 18:00:00,77.9,19.2,29.58,West,270,8.0,22.0,11,0.00,,---,0.00,VWS V14.01,2013-06-09 00:00:00,
2013-06-08 18:30:00,76.7,20.3,29.59,West,270,7.0,20.0,12,0.00,,---,0.00,VWS V14.01,2013-06-09 00:30:00,
2013-06-08 19:00:00,75.9,21.6,29.60,West,270,6.0,20.0,13,0.00,,---,0.00,VWS V14.01,2013-06-09 01:00:00,
2013-06-08 19:30:00,75.1,20.9,29.61,West,270,6.0,16.0,13,0.00,,---,0.00,VWS V14.01,2013-06-09 01:30:00,
2013-06-08 20:00:00,74.1,21.9,29.61,West,270,4.0,19.0,14,0.00,,---,0.00,VWS V14.01,2013-06-09 02:00:00,
2013-06-08 20:30:00,70.2,24.7,29.63,West,270,4.0,15.0,18,0.00,,---,0.00,VWS V14.01,2013-06-09 02:30:00,
2013-06-08 21:00:00,66.1,25.1,29.64,West,270,1.0,12.0,21,0.00,,---,0.00,VWS V14.01,2013-06-09 03:00:00,
2013-06-08 21:30:00,60.3,25.3,29.66,West,270,0.0,1.0,26,0.00,,---,0.00,VWS V14.01,2013-06-09 03:30:00,
2013-06-08 22:00:00,56.3,27.6,29.68,NNW,338,0.0,1.0,33,0.00,,---,0.00,VWS V14.01,2013-06-09 04:00:00,
2013-06-08 22:30:00,53.4,35.2,29.69,NNW,338,0.0,1.0,50,0.00,,---,0.00,VWS V14.01,2013-06-09 04:30:00,
2013-06-08 23:00:00,51.2,30.6,29.69,NNW,338,0.0,1.0,45,0.00,,---,0.00,VWS V14.01,2013-06-09 05:00:00,
2013-06-08 23:30:00,48.8,30.5,29.70,NNW,338,0.0,0.0,49,0.00,,---,0.00,VWS V14.01,2013-06-09 05:30:00,